Retour au catalogue

DELTA 1 DEB

ActifSSO
NORAD 12223·DEBRIS·🇺🇸 United States

Lancé Mar 5, 1978 depuis Vandenberg Space Force Base

Loading…

Prochains Passages (prochaines 24 heures)

TLE

FraisSource: Space-Track

Époque: Sep 14, 2026, 13:04 UTC

1 12223U 78026BQ  26257.54484311 -.00000062  00000-0 -99788-5 0  9991
2 12223  99.1653 291.3249 0040057 221.8882 137.9218 14.04127245335420

Suivez DELTA 1 DEB en temps réel avec AllMySat

Download on the App Store